Houston Hull, TX

5:05 AM CDT on October 16, 2019 (GMT -0500)
Sugar Land Municipal-Hull

Weather History for KSGR - August, 2019

Change the Weather History Date:

Friday, August 2, 2019

  Actual Average Record
Temperature  
Mean Temperature 84 °F -  
Max Temperature 95 °F 93 °F 104 °F (1998)
Min Temperature 73 °F 74 °F 69 °F (1971)
Cooling Degree Days 19    
Growing Degree Days 34 (Base 50)    
Moisture  
Dew Point 75 °F    
Average Humidity 77    
Maximum Humidity 100    
Minimum Humidity 50    
Precipitation  
Precipitation 0.00 in - - ()
Sea Level Pressure  
Sea Level Pressure 29.96 in    
Wind  
Wind Speed 2 mph (SSW)    
Max Wind Speed 12 mph    
Max Gust Speed -    
Visibility 10 miles    
Events      
Averages and records for this station are not official NWS values.
T = Trace of Precipitation, MM = Missing Value Source: NWS Daily Summary

Daily Weather History Graph

Daily Weather History Graph

Search for Another Location

Airport or City:

Astronomy

Aug. 02, 2019 Rise Set
Actual Time 6:42 AM CDT 8:14 PM CDT
Civil Twilight 6:17 AM CDT 8:40 PM CDT
Nautical Twilight 5:46 AM CDT 9:11 PM CDT
Astronomical Twilight 5:13 AM CDT 9:43 PM CDT
Moon 8:19 AM CDT (8/2) 9:51 PM CDT (8/2)
Length of Visible Light 14h 23m
Length of Day
13h 31m
Waxing Crescent, 4% of the Moon is Illuminated
Aug 2
Waxing Crescent
Aug 7
First Quarter
Aug 15
Full
Aug 23
Last Quarter
Aug 30
New

Hourly Weather History & Observations

Time (CDT) Temp. Heat Index Dew Point Humidity Pressure Visibility Wind Dir Wind Speed Gust Speed Precip Events Conditions
12:53 AM 77.0 °F - 75.0 °F 94% 29.99 in 10.0 mi Calm Calm - N/A   Clear
1:53 AM 75.9 °F - 75.0 °F 97% 29.99 in 10.0 mi Calm Calm - N/A   Clear
2:53 AM 75.0 °F - 75.0 °F 100% 29.99 in 10.0 mi SW 3.5 mph - N/A   Clear
3:53 AM 75.0 °F - 75.0 °F 100% 29.99 in 10.0 mi Calm Calm - N/A   Clear
4:53 AM 75.0 °F - 75.0 °F 100% 29.99 in 10.0 mi Calm Calm - N/A   Clear
5:53 AM 75.0 °F - 75.0 °F 100% 29.99 in 10.0 mi Calm Calm - N/A   Clear
6:53 AM 73.9 °F - 73.9 °F 100% 29.99 in 10.0 mi Calm Calm - N/A   Clear
7:53 AM 79.0 °F - 77.0 °F 94% 29.99 in 10.0 mi Calm Calm - N/A   Clear
8:53 AM 82.0 °F 91.0 °F 78.1 °F 88% 30.01 in 10.0 mi Calm Calm - N/A   Clear
9:53 AM 84.9 °F 94.1 °F 75.9 °F 74% 30.01 in 10.0 mi SW 5.8 mph - N/A   Clear
10:53 AM 87.1 °F 96.3 °F 75.0 °F 67% 30.01 in 10.0 mi Calm Calm - N/A   Scattered Clouds
11:53 AM 88.0 °F 96.5 °F 73.9 °F 63% 30.00 in 10.0 mi Calm Calm - N/A   Clear
12:53 PM 91.0 °F 101.6 °F 75.0 °F 59% 29.99 in 10.0 mi NW 4.6 mph - N/A   Partly Cloudy
1:53 PM 91.9 °F 101.3 °F 73.9 °F 55% 29.97 in 10.0 mi Calm Calm - N/A   Scattered Clouds
2:53 PM 95.0 °F 105.2 °F 73.9 °F 50% 29.94 in 10.0 mi Calm Calm - N/A   Partly Cloudy
3:53 PM 93.0 °F 100.7 °F 72.0 °F 50% 29.92 in 10.0 mi Calm Calm - N/A   Scattered Clouds
4:53 PM 93.9 °F 105.4 °F 75.0 °F 54% 29.91 in 10.0 mi SW 6.9 mph - N/A   Scattered Clouds
5:53 PM 93.0 °F 104.6 °F 75.0 °F 56% 29.90 in 10.0 mi West 3.5 mph - N/A   Clear
6:53 PM 91.0 °F 101.6 °F 75.0 °F 59% 29.90 in 10.0 mi SSE 11.5 mph - N/A   Clear
7:53 PM 87.1 °F 97.3 °F 75.9 °F 69% 29.90 in 10.0 mi SSE 11.5 mph - N/A   Mostly Cloudy
8:53 PM 84.0 °F 91.9 °F 75.0 °F 74% 29.92 in 10.0 mi SSE 9.2 mph - N/A   Clear
9:53 PM 82.0 °F 87.9 °F 73.9 °F 76% 29.93 in 10.0 mi South 4.6 mph - N/A   Partly Cloudy
10:53 PM 82.0 °F 88.6 °F 75.0 °F 79% 29.95 in 10.0 mi South 4.6 mph - N/A   Partly Cloudy
11:53 PM 81.0 °F 86.7 °F 75.0 °F 82% 29.95 in 10.0 mi South 3.5 mph - N/A   Partly Cloudy